• In Hungary
  • List of Countries
  • For 7 days
  • Water Temperature
  • Satellite Maps
  • Weather Map
  • News
  • Weather Widgets
  • user-avatar
    Login

    Hourly Weather Bronislawka

    Today, 26 September, Wednesday

    Time Temperature Precipitation Wind Pressure Humidity
    00:00 +5°C° 0 mm 2 mps 770 mmHg 63%
    01:00 +5°C° 0 mm 2 mps 770 mmHg 63%
    02:00 +4°C° 0 mm 2 mps 770 mmHg 64%
    03:00 +3°C° 0 mm 3 mps 770 mmHg 66%
    04:00 +3°C° 0 mm 3 mps 770 mmHg 67%
    05:00 +4°C° 0 mm 3 mps 770 mmHg 68%
    06:00 +5°C° 0 mm 4 mps 769 mmHg 69%
    07:00 +5°C° 0 mm 4 mps 769 mmHg 70%
    08:00 +7°C° 0 mm 5 mps 769 mmHg 63%
    09:00 +9°C° 0 mm 5 mps 769 mmHg 57%
    10:00 +11°C° 0 mm 6 mps 768 mmHg 50%
    11:00 +11°C° 0 mm 6 mps 768 mmHg 49%
    12:00 +12°C° 0 mm 7 mps 767 mmHg 48%
    13:00 +12°C° 0 mm 7 mps 767 mmHg 46%
    14:00 +11°C° 0.2 mm 7 mps 766 mmHg 53%
    15:00 +10°C° 0.2 mm 6 mps 765 mmHg 59%
    16:00 +9°C° 0.2 mm 6 mps 765 mmHg 65%
    17:00 +9°C° 0.4 mm 6 mps 764 mmHg 67%
    18:00 +8°C° 0.4 mm 6 mps 764 mmHg 69%
    19:00 +8°C° 0.4 mm 6 mps 763 mmHg 71%
    20:00 +9°C° 0.1 mm 6 mps 763 mmHg 68%
    21:00 +9°C° 0.1 mm 7 mps 762 mmHg 66%
    22:00 +10°C° 0.1 mm 7 mps 762 mmHg 63%
    23:00 +10°C° 0 mm 7 mps 761 mmHg 64%

    Tomorrow, 27 September, Thursday

    Time Temperature Precipitation Wind Pressure Humidity
    00:00 +10°C° 0 mm 7 mps 761 mmHg 65%
    01:00 +10°C° 0 mm 7 mps 761 mmHg 66%
    02:00 +10°C° 0 mm 7 mps 760 mmHg 66%
    03:00 +11°C° 0 mm 7 mps 760 mmHg 67%
    04:00 +11°C° 0 mm 7 mps 760 mmHg 67%
    05:00 +11°C° 0 mm 7 mps 760 mmHg 70%
    06:00 +11°C° 0 mm 7 mps 760 mmHg 73%
    07:00 +11°C° 0 mm 7 mps 760 mmHg 76%
    08:00 +14°C° 0 mm 7 mps 760 mmHg 75%
    09:00 +15°C° 0 mm 7 mps 761 mmHg 74%
    10:00 +16°C° 0 mm 7 mps 761 mmHg 73%
    11:00 +17°C° 0.1 mm 7 mps 761 mmHg 72%
    12:00 +18°C° 0.1 mm 7 mps 761 mmHg 70%
    13:00 +18°C° 0.1 mm 7 mps 761 mmHg 69%
    14:00 +19°C° 0 mm 6 mps 760 mmHg 69%
    15:00 +19°C° 0 mm 5 mps 760 mmHg 69%
    16:00 +19°C° 0 mm 5 mps 760 mmHg 69%
    17:00 +18°C° 0 mm 4 mps 760 mmHg 75%
    18:00 +17°C° 0 mm 4 mps 759 mmHg 80%
    19:00 +14°C° 0 mm 4 mps 759 mmHg 85%
    20:00 +14°C° 0 mm 4 mps 759 mmHg 86%
    21:00 +14°C° 0 mm 4 mps 758 mmHg 87%
    22:00 +14°C° 0 mm 4 mps 758 mmHg 88%
    23:00 +14°C° 0 mm 5 mps 757 mmHg 87%

    Day after tomorrow, 28 September, Friday

    Time Temperature Precipitation Wind Pressure Humidity
    00:00 +14°C° 0 mm 5 mps 757 mmHg 86%
    01:00 +15°C° 0 mm 5 mps 756 mmHg 85%
    02:00 +14°C° 0 mm 5 mps 755 mmHg 84%
    03:00 +14°C° 0 mm 6 mps 755 mmHg 82%
    04:00 +14°C° 0 mm 6 mps 754 mmHg 81%
    05:00 +14°C° 0 mm 6 mps 754 mmHg 78%
    06:00 +14°C° 0 mm 6 mps 754 mmHg 76%
    07:00 +14°C° 0 mm 6 mps 754 mmHg 74%
    08:00 +14°C° 0 mm 6 mps 755 mmHg 72%
    09:00 +15°C° 0 mm 6 mps 755 mmHg 71%
    10:00 +15°C° 0 mm 5 mps 755 mmHg 70%
    11:00 +15°C° 0 mm 5 mps 756 mmHg 66%
    12:00 +15°C° 0 mm 5 mps 756 mmHg 63%
    13:00 +16°C° 0 mm 5 mps 756 mmHg 59%
    14:00 +15°C° 0 mm 5 mps 756 mmHg 57%
    15:00 +15°C° 0 mm 5 mps 756 mmHg 55%
    16:00 +15°C° 0 mm 5 mps 756 mmHg 52%
    17:00 +14°C° 0 mm 4 mps 757 mmHg 57%
    18:00 +12°C° 0 mm 3 mps 757 mmHg 61%
    19:00 +11°C° 0 mm 3 mps 757 mmHg 66%
    20:00 +11°C° 0 mm 3 mps 758 mmHg 68%
    21:00 +10°C° 0 mm 3 mps 758 mmHg 71%
    22:00 +10°C° 0 mm 2 mps 758 mmHg 73%
    23:00 +9°C° 0 mm 2 mps 759 mmHg 75%

    29 September, Saturday

    Time Temperature Precipitation Wind Pressure Humidity
    00:00 +9°C° 0 mm 2 mps 759 mmHg 77%
    01:00 +9°C° 0 mm 2 mps 759 mmHg 79%
    02:00 +8°C° 0 mm 2 mps 760 mmHg 80%
    03:00 +7°C° 0 mm 2 mps 760 mmHg 81%
    04:00 +7°C° 0 mm 2 mps 760 mmHg 82%
    05:00 +7°C° 0 mm 2 mps 760 mmHg 79%
    06:00 +7°C° 0 mm 3 mps 761 mmHg 76%
    07:00 +8°C° 0 mm 3 mps 761 mmHg 73%
    08:00 +9°C° 0 mm 3 mps 762 mmHg 64%
    09:00 +11°C° 0 mm 3 mps 762 mmHg 55%
    10:00 +13°C° 0 mm 4 mps 763 mmHg 46%
    11:00 +13°C° 0 mm 4 mps 763 mmHg 44%
    12:00 +14°C° 0 mm 4 mps 763 mmHg 41%
    13:00 +14°C° 0 mm 4 mps 763 mmHg 38%
    14:00 +14°C° 0 mm 4 mps 763 mmHg 39%
    15:00 +13°C° 0 mm 3 mps 763 mmHg 41%
    16:00 +13°C° 0 mm 3 mps 763 mmHg 42%
    17:00 +12°C° 0 mm 3 mps 764 mmHg 46%
    18:00 +10°C° 0 mm 2 mps 764 mmHg 50%
    19:00 +9°C° 0 mm 2 mps 764 mmHg 54%
    20:00 +8°C° 0 mm 2 mps 765 mmHg 56%
    21:00 +9°C° 0 mm 1 mps 765 mmHg 59%
    22:00 +8°C° 0 mm 1 mps 765 mmHg 61%
    23:00 +8°C° 0 mm 1 mps 765 mmHg 62%

    30 September, Sunday

    Time Temperature Precipitation Wind Pressure Humidity
    00:00 +8°C° 0 mm 1 mps 765 mmHg 63%
    01:00 +7°C° 0 mm 1 mps 765 mmHg 64%
    02:00 +7°C° 0 mm 1 mps 765 mmHg 65%
    03:00 +6°C° 0 mm 2 mps 765 mmHg 65%
    04:00 +6°C° 0 mm 2 mps 765 mmHg 66%
    05:00 +6°C° 0 mm 2 mps 765 mmHg 64%
    06:00 +7°C° 0 mm 2 mps 765 mmHg 63%
    07:00 +7°C° 0 mm 2 mps 765 mmHg 62%
    08:00 +9°C° 0 mm 2 mps 764 mmHg 56%
    09:00 +11°C° 0 mm 3 mps 764 mmHg 50%
    10:00 +13°C° 0 mm 3 mps 764 mmHg 44%
    11:00 +13°C° 0 mm 3 mps 764 mmHg 41%
    12:00 +14°C° 0 mm 3 mps 763 mmHg 39%
    13:00 +16°C° 0 mm 3 mps 763 mmHg 36%
    14:00 +14°C° 0 mm 3 mps 762 mmHg 38%
    15:00 +15°C° 0 mm 2 mps 761 mmHg 40%
    16:00 +15°C° 0 mm 2 mps 761 mmHg 41%
    17:00 +13°C° 0 mm 2 mps 761 mmHg 44%
    18:00 +12°C° 0 mm 2 mps 761 mmHg 47%
    19:00 +9°C° 0 mm 2 mps 760 mmHg 50%
    20:00 +9°C° 0 mm 3 mps 760 mmHg 52%
    21:00 +8°C° 0 mm 3 mps 760 mmHg 54%
    22:00 +8°C° 0 mm 3 mps 760 mmHg 56%
    23:00 +7°C° 0 mm 3 mps 759 mmHg 59%

    1 October, Monday

    Time Temperature Precipitation Wind Pressure Humidity
    00:00 +7°C° 0 mm 2 mps 759 mmHg 62%
    01:00 +6°C° 0 mm 2 mps 758 mmHg 65%
    02:00 +5°C° 0 mm 3 mps 757 mmHg 67%
    03:00 +5°C° 0 mm 3 mps 757 mmHg 70%
    04:00 +4°C° 0 mm 3 mps 756 mmHg 72%
    05:00 +5°C° 0 mm 3 mps 756 mmHg 72%
    06:00 +5°C° 0 mm 3 mps 755 mmHg 73%
    07:00 +5°C° 0 mm 3 mps 755 mmHg 73%
    08:00 +8°C° 0 mm 3 mps 755 mmHg 67%
    09:00 +11°C° 0 mm 4 mps 754 mmHg 60%
    10:00 +13°C° 0 mm 4 mps 754 mmHg 54%
    11:00 +14°C° 0 mm 4 mps 753 mmHg 51%
    12:00 +17°C° 0 mm 4 mps 753 mmHg 47%
    13:00 +19°C° 0 mm 4 mps 752 mmHg 43%
    14:00 +18°C° 0 mm 4 mps 752 mmHg 46%
    15:00 +18°C° 0 mm 3 mps 751 mmHg 49%
    16:00 +18°C° 0 mm 3 mps 751 mmHg 52%
    17:00 +17°C° 0 mm 3 mps 751 mmHg 55%
    18:00 +16°C° 0 mm 3 mps 751 mmHg 57%
    19:00 +14°C° 0 mm 3 mps 751 mmHg 59%
    20:00 +14°C° 0 mm 3 mps 751 mmHg 60%
    21:00 +14°C° 0 mm 3 mps 751 mmHg 60%
    22:00 +14°C° 0 mm 3 mps 751 mmHg 61%
    23:00 +13°C° 0 mm 3 mps 751 mmHg 65%
    Show more